Home   Weather   Geraldton   Past weeks

Flag for Australia Past Weather in Geraldton, Western Australia, Australia — Yesterday and Last 2 Weeks

Now
73 °F

Mild.


Feels Like: 76 °F
Forecast: 62 / 78 °F
Wind: 15 mph from Northeast

Location: Geraldton Airport

Current Time: Apr 29, 2017 at 9:51:36 am

Latest Report: Apr 29, 2017 at 9:00 am


Visibility: N/A

Pressure: 30.17 "Hg

Humidity: 29%

Dew Point: 38 °F

Location of GeraldtonLocation

Past Weather in Geraldton — Graph

°F

Geraldton Temperature Yesterday

Maximum temperature yesterday: 80 °F (at 11:00 am)
Minimum temperature yesterday: 51 °F (at 5:00 am)
Average temperature yesterday: 64 °F

High & Low Weather Summary for the Past Weeks

 TemperatureHumidityPressure
High87 °F (Apr 21, 11:00 am)93% (Apr 18, 5:00 am)30.26 "Hg (Apr 18, 5:00 am)
Low51 °F (Apr 27, 3:00 am)14% (Apr 26, 3:00 pm)29.87 "Hg (Apr 16, 3:00 pm)
Average69 °F66%30.04 "Hg
* Reported Apr 14 8:00 am — Apr 29 8:00 am, Geraldton, Weather by CustomWeather, © 2017

Note: Actual official high and low records may vary slightly from our data, if they occured in-between our weather recording intervals... More about our weather records

Advertising

Geraldton Weather History for the Previous 24 Hours

Scroll right to see more
 ConditionsComfort  
Time TempWeatherWind HumidityBarometerVisibility
8:00 am
Sat, Apr 29
63 °FMild.8 mph41%30.17 "HgN/A
6:00 am53 °FCool.10 mph58%30.15 "HgN/A
5:00 am55 °FCool.5 mph59%30.14 "HgN/A
3:00 am51 °FCool.7 mph70%30.14 "HgN/A
2:00 am51 °FCool.8 mph74%30.14 "HgN/A
12:00 am53 °FCool.6 mph88%30.16 "HgN/A
11:00 pm
Fri, Apr 28
53 °FCool.5 mph88%30.17 "HgN/A
9:00 pm58 °FCool.7 mph82%30.18 "HgN/A
8:00 pm64 °FMild.8 mph74%30.17 "HgN/A
6:00 pm71 °FMild.15 mph55%30.15 "HgN/A
5:00 pm73 °FMild.18 mph47%30.13 "HgN/A
3:00 pm79 °FPleasantly warm.18 mph25%30.14 "HgN/A
2:00 pm79 °FPleasantly warm.17 mph24%30.13 "HgN/A
12:00 pm78 °FPleasantly warm.14 mph28%30.19 "HgN/A
11:00 am80 °FPleasantly warm.12 mph22%30.21 "HgN/A
9:00 am68 °FMild.7 mph40%30.24 "HgN/A
Weather by CustomWeather, © 2017

See weather overviewHow to use our weather pages